Temp
14 15 15 15 15 15 16 15 15 15 14 14 14 15 15 15 15 15 14 13 12 12 11 11 11 11 11 10 10 10 9 9 9 9 8 8 8 8 8 8 7 7 7 7
14 14 15 15 15 16 16 15 15 15 15 14 15 15 15 15 15 15 14 14 13 12 13 12 11 11 11 11 11 10 10 9 9 9 8 9 8 8 8 8 8 7 7 8
14 14 15 15 15 16 16 15 15 15 16 16 15 16 16 16 16 15 15 15 14 13 13 13 13 12 12 12 11 10 10 10 9 9 9 8 8 8 8 7 8 7 7 8
14 14 15 15 15 16 16 16 15 15 15 15 15 16 17 16 16 17 16 16 15 14 14 13 13 13 13 12 12 11 11 10 10 9 9 9 9 9 9 9 8 8 8 8
14 15 15 15 15 16 15 15 15 15 15 15 15 15 17 17 17 16 16 16 16 15 14 14 13 13 13 12 12 11 11 11 10 10 10 10 10 10 10 9 8 8 8 8
14 14 15 15 15 15 15 15 15 15 15 17 14 14 17 17 17 16 16 16 16 15 15 14 14 13 13 13 12 12 12 12 11 11 11 11 10 10 9 9 9 9 8 8
14 14 14 15 15 15 15 14 16 16 16 17 15 14 17 17 16 16 16 16 16 16 15 15 14 13 13 13 13 12 12 12 11 11 11 10 10 10 10 9 7 9 7 7
13 14 14 15 15 15 15 15 16 16 16 16 15 15 18 18 17 17 16 16 15 16 15 15 14 14 13 13 12 12 12 12 12 12 11 12 10 11 9 10 10 10 9 8
13 13 14 14 15 15 16 15 16 15 14 15 15 17 17 18 18 17 16 16 15 16 16 15 15 14 14 13 13 12 12 12 12 12 12 12 12 11 10 9 9 9 8 8
14 13 14 14 15 15 15 16 15 15 16 16 16 15 17 18 18 18 17 16 16 16 15 15 14 14 14 13 13 12 12 13 13 13 12 12 12 11 11 11 10 9 9 9
13 14 14 14 15 15 15 16 16 15 15 17 17 18 17 18 18 18 17 16 16 16 15 15 14 14 14 14 13 13 13 13 13 12 12 12 11 11 11 10 9 9 8 8
13 14 14 14 15 15 16 16 16 16 15 14 14 17 18 18 18 18 17 17 16 15 15 15 15 14 14 14 14 13 13 13 12 12 11 11 11 11 11 10 9 9 9 8
14 14 14 14 14 15 15 16 17 16 16 15 17 18 18 18 18 18 18 17 16 15 15 15 15 15 14 14 13 13 12 12 12 11 10 10 10 9 9 9 9 8 8 7
14 14 14 15 16 16 16 16 17 16 16 16 16 17 18 18 18 18 18 17 16 15 15 14 14 14 13 13 13 13 12 12 12 11 10 9 9 9 9 8 8 8 8 8
14 14 15 15 15 16 16 17 17 17 17 16 17 17 18 18 18 18 18 17 17 16 15 14 14 14 13 13 13 13 12 12 10 10 9 9 9 8 8 8 8 8 7 7
15 15 15 15 15 15 16 16 16 16 16 16 17 17 18 18 18 18 18 18 17 16 15 14 14 14 14 14 13 13 12 11 10 10 9 9 9 8 8 8 8 7 7 6
14 14 15 15 15 15 15 16 16 16 16 16 17 17 18 18 18 18 18 18 17 17 15 14 14 14 14 13 13 12 12 11 10 10 10 9 9 8 8 8 7 7 6 6
14 14 14 14 14 15 16 16 16 16 16 16 17 17 18 18 18 19 18 18 17 16 15 14 14 14 13 13 12 12 11 11 10 10 9 9 8 8 8 7 7 7 6 6
14 14 14 14 14 15 16 16 16 16 16 16 16 17 18 18 18 19 18 17 17 16 15 14 13 13 13 12 12 12 11 11 10 9 9 8 8 8 8 7 7 7 7 6
14 14 14 14 15 16 16 16 16 16 16 16 16 17 17 18 18 18 18 18 17 16 16 14 13 13 13 13 12 12 11 11 10 9 9 8 8 8 7 7 6 7 6 6
13 13 13 14 14 15 15 16 16 15 16 16 16 16 17 18 18 18 17 17 17 16 15 14 13 12 12 13 12 11 11 10 9 9 9 8 8 7 7 6 6 6 6 6
13 13 13 13 13 14 15 15 15 16 16 16 16 16 16 17 17 17 17 16 16 16 15 14 13 13 12 12 11 10 10 10 9 9 8 8 7 7 6 6 6 6 6 5
12 12 13 13 13 13 14 14 14 15 16 16 16 16 16 17 16 17 16 16 16 16 14 14 13 12 11 10 10 10 10 10 9 8 8 7 7 6 6 7 6 6 5 5
12 12 12 12 13 13 13 13 14 15 15 15 16 16 16 16 16 15 15 15 15 15 14 13 12 11 11 10 10 9 10 9 8 8 8 7 7 7 7 7 7 6 5 4
11 11 11 12 12 12 12 13 13 14 14 15 15 15 15 16 15 15 15 15 14 13 13 12 11 10 10 9 9 9 9 9 8 8 7 7 7 7 6 6 6 5 4 3
10 10 10 10 11 11 11 11 12 12 13 13 13 14 14 15 14 14 14 14 13 13 12 11 11 10 9 8 7 8 8 8 8 7 7 7 7 6 6 6 5 4 3 2
Height
3177 3179 3179 3179 3179 3178 3177 3176 3176 3174 3173 3173 3173 3172 3172 3171 3171 3171 3172 3173 3173 3174 3176 3177 3178 3180 3181 3183 3184 3186 3188 3191 3191 3193 3193 3192 3192 3192 3191 3190 3189 3185 3183 3181
3176 3176 3179 3178 3179 3178 3177 3176 3175 3174 3173 3172 3171 3170 3168 3168 3169 3170 3170 3170 3172 3173 3175 3177 3178 3179 3181 3182 3183 3185 3188 3190 3191 3192 3192 3191 3190 3189 3188 3187 3186 3185 3182 3181
3171 3176 3178 3177 3178 3178 3177 3176 3175 3174 3172 3171 3169 3167 3165 3165 3165 3166 3166 3168 3169 3170 3173 3175 3177 3178 3180 3181 3183 3185 3187 3189 3189 3190 3189 3187 3186 3185 3184 3183 3181 3180 3180 3179
3170 3172 3175 3176 3177 3177 3175 3175 3175 3174 3172 3172 3170 3168 3163 3162 3163 3163 3164 3165 3167 3169 3171 3173 3175 3177 3179 3181 3183 3185 3186 3187 3187 3186 3185 3184 3185 3184 3182 3180 3178 3178 3176 3176
3165 3168 3173 3175 3176 3176 3175 3174 3174 3173 3171 3170 3169 3168 3162 3160 3159 3160 3160 3161 3164 3168 3170 3172 3175 3177 3179 3180 3182 3184 3183 3184 3184 3185 3183 3182 3183 3182 3180 3175 3171 3171 3173 3173
3163 3166 3170 3173 3174 3174 3174 3174 3174 3172 3170 3169 3167 3168 3161 3159 3158 3157 3158 3159 3159 3162 3165 3169 3172 3174 3177 3178 3180 3180 3180 3182 3183 3181 3181 3182 3181 3180 3172 3160 3161 3163 3167 3170
3159 3162 3166 3170 3172 3173 3173 3174 3173 3171 3169 3167 3167 3166 3160 3158 3157 3156 3156 3157 3157 3159 3161 3164 3167 3170 3173 3175 3176 3176 3176 3178 3178 3177 3179 3179 3177 3172 3169 3158 3146 3158 3162 3166
3156 3160 3161 3164 3168 3171 3170 3172 3172 3170 3168 3169 3167 3164 3160 3157 3156 3155 3155 3156 3156 3157 3159 3161 3165 3167 3169 3170 3173 3173 3173 3173 3173 3173 3174 3173 3164 3168 3165 3160 3156 3160 3160 3161
3152 3154 3157 3161 3165 3168 3167 3168 3170 3170 3169 3169 3165 3162 3158 3157 3156 3154 3154 3154 3155 3157 3158 3159 3161 3162 3164 3167 3169 3168 3168 3169 3170 3170 3170 3169 3169 3166 3160 3159 3160 3158 3158 3158
3150 3151 3153 3158 3161 3163 3165 3166 3168 3167 3167 3165 3161 3160 3157 3155 3155 3153 3153 3153 3154 3155 3156 3156 3157 3158 3160 3164 3164 3163 3164 3166 3168 3167 3164 3164 3165 3162 3160 3158 3158 3158 3158 3157
3146 3148 3149 3153 3155 3158 3161 3161 3164 3165 3164 3160 3159 3156 3155 3154 3153 3152 3151 3152 3152 3153 3154 3154 3154 3156 3158 3161 3162 3162 3162 3164 3164 3164 3163 3162 3160 3160 3158 3157 3156 3156 3156 3155
3142 3146 3148 3150 3152 3154 3156 3158 3160 3161 3161 3159 3158 3154 3152 3152 3151 3150 3149 3150 3151 3151 3152 3152 3153 3154 3155 3158 3160 3161 3161 3162 3161 3161 3161 3161 3160 3158 3156 3155 3156 3156 3155 3154
3137 3141 3144 3146 3149 3150 3151 3153 3155 3156 3157 3156 3156 3151 3148 3148 3149 3149 3148 3148 3149 3150 3150 3150 3152 3153 3155 3156 3157 3158 3158 3158 3159 3159 3159 3159 3158 3157 3156 3156 3154 3152 3151 3150
3134 3136 3138 3139 3141 3145 3147 3149 3150 3152 3152 3151 3150 3147 3145 3145 3145 3146 3146 3146 3147 3147 3147 3148 3150 3151 3153 3154 3156 3156 3156 3156 3156 3156 3156 3156 3155 3155 3155 3153 3152 3151 3151 3149
3129 3132 3134 3136 3139 3141 3143 3145 3146 3146 3147 3147 3147 3144 3143 3143 3142 3141 3143 3142 3144 3145 3146 3147 3148 3149 3151 3153 3154 3154 3155 3156 3156 3155 3155 3156 3157 3156 3154 3153 3152 3151 3148 3146
3123 3127 3129 3131 3134 3137 3139 3140 3142 3143 3143 3143 3143 3142 3141 3140 3139 3137 3137 3138 3140 3142 3143 3144 3146 3147 3149 3150 3152 3153 3154 3154 3155 3155 3156 3156 3154 3152 3151 3151 3150 3147 3145 3142
3121 3124 3127 3128 3129 3132 3136 3136 3137 3138 3138 3139 3139 3139 3138 3137 3135 3135 3135 3135 3137 3139 3141 3142 3144 3145 3147 3148 3150 3151 3152 3154 3154 3154 3154 3153 3151 3150 3148 3146 3145 3143 3140 3136
3121 3122 3124 3126 3127 3130 3130 3132 3132 3131 3131 3132 3134 3134 3134 3133 3131 3131 3131 3133 3135 3135 3137 3139 3141 3143 3145 3146 3147 3148 3149 3150 3150 3150 3149 3148 3147 3146 3145 3144 3141 3138 3135 3131
3120 3121 3122 3123 3124 3126 3127 3128 3129 3128 3128 3127 3128 3128 3128 3128 3127 3126 3127 3129 3130 3132 3135 3136 3138 3140 3142 3144 3145 3146 3147 3147 3147 3147 3145 3145 3145 3145 3143 3140 3137 3132 3128 3125
3117 3118 3121 3121 3121 3120 3122 3123 3124 3124 3124 3122 3123 3124 3123 3122 3122 3123 3124 3125 3126 3128 3130 3132 3134 3136 3137 3140 3142 3142 3143 3143 3143 3143 3144 3143 3143 3140 3137 3133 3130 3126 3123 3119
3113 3114 3116 3116 3118 3117 3118 3119 3120 3122 3125 3119 3118 3118 3117 3118 3120 3120 3120 3122 3124 3125 3127 3128 3130 3133 3135 3136 3137 3139 3140 3140 3140 3140 3139 3139 3137 3134 3132 3129 3124 3120 3117 3114
3111 3113 3113 3114 3114 3115 3114 3114 3117 3118 3116 3117 3115 3114 3113 3114 3115 3117 3118 3120 3121 3122 3124 3124 3127 3129 3131 3133 3134 3135 3135 3136 3136 3135 3136 3133 3130 3130 3127 3122 3118 3115 3112 3109
3108 3109 3111 3112 3111 3110 3110 3110 3110 3111 3112 3112 3112 3110 3110 3110 3111 3112 3114 3117 3118 3119 3120 3121 3123 3125 3127 3128 3130 3130 3130 3131 3131 3131 3129 3127 3128 3124 3120 3116 3113 3109 3108 3105
3101 3103 3103 3106 3107 3108 3107 3107 3106 3106 3106 3106 3106 3107 3106 3106 3105 3108 3109 3111 3113 3114 3115 3117 3119 3121 3123 3125 3125 3126 3126 3127 3126 3125 3125 3125 3122 3118 3113 3110 3108 3105 3101 3099
3097 3098 3098 3099 3102 3102 3103 3102 3101 3100 3100 3101 3101 3100 3101 3100 3100 3102 3105 3107 3109 3110 3112 3113 3113 3116 3119 3122 3123 3122 3123 3123 3122 3122 3121 3119 3115 3111 3108 3106 3104 3099 3097 3094
3092 3094 3095 3096 3097 3096 3095 3094 3094 3094 3094 3094 3095 3094 3094 3094 3095 3097 3099 3102 3104 3105 3108 3109 3109 3112 3111 3110 3119 3120 3120 3120 3118 3118 3117 3112 3108 3106 3103 3101 3097 3095 3091 3088
Wind_Speed
19 13 13 8 7 12 13 7 4 5 3 6 10 6 5 4 1 2 3 8 10 9 10 11 13 16 17 17 13 11 8 5 1 4 7 7 7 9 11 12 16 17 14 10
20 18 14 11 9 11 10 5 3 4 5 4 7 11 11 10 4 4 4 5 8 10 11 8 10 11 12 13 13 13 9 5 1 3 7 10 10 10 10 12 13 17 16 14
24 18 20 17 12 12 12 6 3 7 8 9 11 7 10 6 8 8 8 10 11 10 9 8 11 12 11 11 11 11 8 5 2 4 9 13 13 12 12 11 9 15 13 11
23 24 23 19 14 14 11 5 9 9 9 5 11 7 9 6 4 8 9 11 13 13 12 10 10 10 10 11 12 12 8 6 5 5 9 11 14 15 16 16 16 15 13 13
26 27 27 25 14 14 8 6 7 7 9 9 7 3 6 8 12 8 8 7 9 11 14 12 13 9 10 13 13 9 9 8 7 9 12 14 15 25 27 26 21 20 15 14
22 24 24 25 17 10 8 8 5 9 7 4 5 3 6 7 11 9 7 9 7 11 14 15 15 16 14 12 12 11 10 9 10 13 18 17 22 19 24 24 34 28 17 15
21 22 21 22 17 14 10 6 5 3 2 3 8 6 11 14 11 9 7 4 8 7 12 15 18 17 17 16 15 13 13 10 13 16 18 19 22 18 20 25 9 21 12 10
21 20 26 18 22 12 8 8 5 3 2 5 8 6 9 16 16 8 4 4 6 3 12 14 14 15 18 15 14 15 18 17 15 17 17 22 15 12 12 11 12 6 7 11
16 21 21 28 19 15 13 11 11 8 10 7 5 15 20 11 13 8 4 5 4 9 7 10 13 17 19 18 12 14 19 14 12 18 22 17 12 9 10 4 4 10 7 10
11 9 24 24 25 23 19 8 3 6 4 6 6 11 16 14 14 11 3 4 3 6 7 6 8 11 19 17 8 5 5 8 14 18 20 15 10 8 6 6 3 4 7 7
24 10 15 23 22 21 23 17 11 6 7 7 7 11 16 19 15 17 7 8 4 4 4 4 4 6 11 13 9 4 4 11 14 14 14 9 9 8 6 2 2 0 1 3
25 14 12 17 22 22 22 19 19 11 6 9 6 21 22 23 20 15 14 7 9 4 3 2 4 3 6 6 6 7 10 12 13 7 5 4 4 5 6 6 3 3 5 7
24 17 13 13 18 21 18 21 21 20 17 12 9 18 22 18 17 16 17 10 10 7 5 5 6 6 8 8 8 8 9 5 5 4 2 3 4 4 3 2 4 6 8 10
21 20 21 20 20 20 21 18 19 14 7 8 12 17 8 12 15 18 21 16 10 11 10 8 8 9 8 8 7 7 6 8 7 4 5 7 10 11 11 11 10 9 11 13
23 19 22 22 17 15 20 20 20 15 13 10 13 15 12 10 15 17 17 22 16 12 13 11 10 11 11 9 7 5 7 5 2 3 5 6 7 10 13 15 15 16 17 19
25 15 23 23 21 16 17 15 16 16 16 13 13 14 15 17 18 15 17 21 17 15 14 14 12 14 12 8 4 6 5 3 4 4 6 7 8 11 14 17 19 20 20 21
10 16 9 11 16 12 13 13 10 17 21 17 16 13 13 16 20 16 17 18 16 15 15 17 14 14 12 8 4 5 5 7 9 9 11 11 11 13 16 21 23 24 24 23
3 4 6 5 12 7 10 10 13 18 23 24 20 15 14 17 17 16 20 18 13 17 17 19 18 17 16 9 5 8 10 12 13 13 13 13 12 14 17 23 27 28 27 23
6 5 5 5 9 7 10 8 8 13 16 18 17 14 14 17 19 21 17 17 19 13 14 17 17 18 19 13 14 15 16 16 16 15 15 16 15 17 22 27 31 30 26 24
11 12 9 9 6 9 13 13 13 13 10 12 24 18 15 17 19 12 17 20 20 11 13 20 21 22 23 20 18 16 15 15 14 16 16 15 17 20 24 29 33 29 26 24
6 4 8 12 9 9 12 11 13 9 13 14 13 19 19 17 14 16 13 22 16 12 11 18 20 21 21 21 17 13 12 13 14 15 15 16 18 23 28 33 32 28 26 24
12 6 9 9 8 9 14 17 17 14 8 12 15 14 15 16 11 16 14 19 16 13 14 19 19 19 18 14 12 11 12 12 15 16 15 17 21 27 31 34 31 28 26 26
15 16 14 13 9 7 8 12 14 18 17 15 15 15 14 19 21 20 21 20 19 18 17 16 18 18 14 10 11 11 11 14 16 14 16 20 24 29 33 32 30 28 27 26
22 21 22 19 19 16 12 11 14 15 15 15 17 18 19 18 20 24 25 23 21 22 16 17 18 16 13 14 14 11 13 16 14 14 18 22 27 32 32 30 29 28 26 25
19 19 22 21 17 19 20 22 21 20 18 18 18 19 20 23 21 27 25 24 21 21 15 20 19 17 15 14 12 11 14 14 14 15 20 25 30 31 29 28 27 25 24 23
21 23 21 17 15 14 15 16 22 28 26 24 22 22 22 23 24 28 25 22 17 20 20 23 22 20 21 20 14 15 16 14 15 19 24 28 29 26 26 26 25 23 22 22
Wind_Direction
211 213 218 263 309 322 327 330 297 343 354 244 270 259 268 322 64 246 152 150 143 129 127 136 167 179 179 176 180 177 180 158 142 339 329 310 309 310 313 312 314 309 311 306
212 217 217 254 296 313 319 324 329 18 13 318 311 319 276 267 273 243 231 186 164 167 154 151 159 170 176 181 181 170 170 179 204 307 319 330 304 297 299 303 312 303 297 296
214 214 221 254 275 297 303 274 290 345 342 338 347 345 353 299 260 248 228 205 212 197 189 171 155 154 161 165 160 160 164 162 258 297 304 291 288 280 265 259 270 282 293 285
219 215 223 243 264 289 285 285 257 321 327 312 330 302 309 272 270 266 252 242 210 202 192 202 187 170 163 167 167 157 160 174 195 249 269 279 284 292 284 271 269 272 278 282
215 217 220 237 265 287 264 284 261 298 310 323 334 287 272 275 281 270 270 285 236 219 203 198 198 187 175 180 171 191 202 202 220 262 270 283 297 327 311 283 267 265 272 278
216 218 221 233 243 269 260 297 296 292 287 267 329 323 283 303 316 312 274 301 260 229 210 199 200 190 187 198 193 203 216 235 253 270 289 299 312 306 358 308 257 256 255 253
203 207 210 216 225 236 258 250 282 251 218 318 309 304 289 324 326 300 289 282 239 245 214 203 205 209 207 214 212 216 220 231 259 279 297 311 323 313 324 339 285 211 233 290
205 213 202 200 214 223 247 235 251 291 309 329 321 253 306 325 322 324 287 305 274 245 200 212 213 212 214 221 233 240 238 240 265 297 306 320 315 339 321 13 131 145 225 281
211 222 215 219 214 230 250 250 259 240 278 285 275 283 313 347 340 335 301 292 215 184 173 207 213 227 220 219 253 260 240 245 278 297 307 308 340 321 328 316 182 211 256 275
223 207 216 217 232 243 231 235 211 226 250 265 270 286 290 334 338 330 321 191 169 237 256 230 220 209 200 219 256 277 233 267 278 298 309 311 327 339 321 323 294 267 274 286
216 211 200 206 212 212 218 234 236 248 227 272 283 282 296 304 320 321 309 209 239 329 240 252 219 215 217 231 280 332 287 281 297 302 300 316 327 328 336 1 57 112 294 306
212 223 224 199 219 224 229 237 246 243 246 234 263 275 292 298 311 308 306 275 246 284 247 228 219 206 203 223 231 243 259 281 294 301 307 310 312 321 327 340 350 316 311 313
210 215 210 227 228 225 220 224 237 250 254 257 260 277 295 299 294 298 298 294 258 241 259 240 222 210 193 213 235 256 276 290 298 312 33 56 52 57 48 326 308 322 331 332
214 212 215 221 215 209 212 228 234 221 215 252 268 287 294 307 282 280 292 292 262 247 251 243 238 220 213 226 240 262 292 304 320 7 33 32 26 21 14 9 359 344 327 319
206 216 233 242 233 208 212 232 227 227 248 246 280 290 292 295 308 290 273 281 267 246 244 244 249 238 233 239 248 277 290 310 351 18 12 1 353 355 357 356 346 334 327 321
205 210 227 241 243 249 243 225 233 245 249 258 270 288 290 281 282 287 252 260 260 253 237 233 247 244 234 229 249 281 273 305 312 292 293 305 323 334 336 338 335 328 321 316
173 210 230 237 249 230 229 216 254 279 257 263 255 272 285 276 261 249 244 259 256 249 241 229 232 232 221 201 229 244 264 257 258 278 290 306 322 328 330 331 328 324 319 314
132 164 186 187 170 197 218 241 298 281 256 247 259 262 272 283 260 258 247 241 235 240 235 230 228 229 209 206 242 245 254 256 275 286 305 318 315 317 318 324 324 321 318 313
220 261 204 188 206 229 217 236 290 290 277 247 238 250 262 273 265 250 229 230 231 229 223 222 224 219 209 213 231 245 258 265 274 288 309 311 306 306 318 323 324 322 319 314
230 239 232 208 208 222 238 253 256 274 287 283 250 253 256 269 254 231 233 237 233 210 219 217 220 219 213 221 240 252 259 268 277 296 309 307 299 309 319 324 324 321 317 316
193 234 222 225 234 241 231 238 240 224 263 287 307 253 245 244 234 242 240 231 223 220 232 217 216 217 217 227 240 246 257 272 288 307 306 301 315 327 326 323 324 319 318 318
248 259 264 242 225 245 232 228 223 251 262 274 280 294 275 235 227 252 232 229 238 232 242 224 219 208 212 225 237 243 269 291 305 308 301 311 325 322 322 324 323 321 318 314
233 242 248 240 252 237 224 241 246 242 244 255 272 283 299 248 248 219 220 225 232 239 241 233 221 209 214 225 243 256 285 299 308 302 309 320 317 317 322 323 318 315 313 312
234 239 243 253 253 258 259 272 266 251 237 239 253 264 274 282 248 223 211 223 229 232 229 215 208 215 223 237 246 264 293 304 298 303 312 312 315 321 322 317 310 310 312 312
234 240 240 248 250 277 273 264 265 257 245 245 250 257 256 261 252 218 226 219 235 231 232 215 212 223 222 238 248 274 296 295 295 303 308 314 321 320 315 309 307 312 314 316
240 242 249 259 256 277 278 267 254 253 252 252 251 254 254 259 243 220 226 237 239 227 234 230 220 220 223 231 265 287 291 286 293 302 311 320 318 313 307 305 309 312 317 323